Baku, Azerbaijan

12:09 PM +04 on June 23, 2018 (GMT +0400)
Bina

Weather History for UBBB - March, 2018

Change the Weather History Date:

Monday, March 5, 2018

  Actual Average (WUND) Record (WUND)
Temperature  
Mean Temperature 52 °F -  
Max Temperature 62 °F - - (-1)
Min Temperature 41 °F - - (-1)
Degree Days  
Heating Degree Days 14    
Growing Degree Days 2 (Base 50)    
Moisture  
Dew Point 42 °F    
Average Humidity 83    
Maximum Humidity 100    
Minimum Humidity 55    
Precipitation  
Precipitation 0.00 in - - ()
Sea Level Pressure  
Sea Level Pressure 29.68 in    
Wind  
Wind Speed 15 mph ()    
Max Wind Speed 32 mph    
Max Gust Speed 46 mph    
Visibility 5.0 miles    
Events      
Averages and records for this station are not official NWS values.
T = Trace of Precipitation, MM = Missing Value Source: Averaged Metar Reports

Daily Weather History Graph

Daily Weather History Graph

Search for Another Location

Airport or City:

Astronomy

Mar. 05, 2018 Rise Set
Actual Time 7:07 AM +04 6:35 PM +04
Civil Twilight 6:40 AM +04 7:02 PM +04
Nautical Twilight 6:09 AM +04 7:34 PM +04
Astronomical Twilight 5:37 AM +04 8:05 PM +04
Moon 10:22 PM +04 (3/5) 9:10 AM +04 (3/5)
Length of Visible Light 12h 22m
Length of Day
11h 27m
Waning Gibbous, 87% of the Moon is Illuminated
Mar 5
Waning Gibbous
Mar 9
Last Quarter
Mar 17
New
Mar 24
First Quarter
Mar 31
Full

Hourly Weather History & Observations

Time (+04) Temp. Windchill Dew Point Humidity Pressure Visibility Wind Dir Wind Speed Gust Speed Precip Events Conditions
12:00 AM 42.8 °F 36.6 °F 41.0 °F 93% 29.65 in 3.1 mi NW 11.5 mph - N/A   Mostly Cloudy
12:30 AM 42.8 °F 37.0 °F 42.8 °F 100% 29.62 in 1.9 mi NW 10.4 mph - N/A   Mostly Cloudy
1:00 AM 42 °F - 40 °F 92% 29.62 in 1 mi West 8.9 mph - -   Mist
1:00 AM 42.8 °F 37.0 °F 41.0 °F 93% 29.62 in 1.4 mi WNW 10.4 mph - N/A   Mostly Cloudy
1:30 AM 42.8 °F 39.3 °F 41.0 °F 93% 29.62 in 1.9 mi WNW 5.8 mph - N/A   Mostly Cloudy
2:00 AM 42.8 °F 39.3 °F 41.0 °F 93% 29.62 in 0.9 mi WSW 5.8 mph - N/A   Mostly Cloudy
2:30 AM 42.8 °F - 41.0 °F 93% 29.59 in - SSE 2.3 mph - N/A   Mostly Cloudy
3:00 AM 42.8 °F 39.3 °F 41.0 °F 93% 29.59 in 2.5 mi NNE 5.8 mph - N/A   Mostly Cloudy
3:30 AM 42.8 °F 37.0 °F 42.8 °F 100% 29.56 in 3.1 mi SSE 10.4 mph - N/A   Mostly Cloudy
4:00 AM 42 °F - 41 °F 94% 29.55 in 2 mi SSE 13.4 mph - -   Mist
4:00 AM 42.8 °F 35.8 °F 42.8 °F 100% 29.53 in 2.5 mi South 13.8 mph - N/A   Mostly Cloudy
4:30 AM 42.8 °F 36.6 °F 42.8 °F 100% 29.53 in 2.5 mi SSE 11.5 mph - N/A   Mostly Cloudy
5:00 AM 44.6 °F 38.1 °F 42.8 °F 93% 29.50 in 5.0 mi SSE 13.8 mph - N/A   Scattered Clouds
5:30 AM 50.0 °F - 42.8 °F 76% 29.50 in - SSW 8.1 mph - N/A   Clear
6:00 AM 48.2 °F - 42.8 °F 82% 29.50 in - SSW 27.6 mph - N/A   Clear
6:30 AM 50.0 °F - 42.8 °F 76% 29.47 in - SSW 24.2 mph 35.7 mph N/A   Clear
7:00 AM 49 °F - 42 °F 69% 29.49 in 6 mi South 22.4 mph - -   Mostly Cloudy
7:00 AM 48.2 °F - 42.8 °F 82% 29.47 in - SSW 21.9 mph 33.4 mph N/A   Clear
7:30 AM 50.0 °F - 42.8 °F 76% 29.50 in - SSW 16.1 mph - N/A   Clear
8:00 AM 51.8 °F - 42.8 °F 71% 29.50 in - SSW 17.3 mph - N/A   Clear
8:30 AM 50.0 °F - 42.8 °F 76% 29.50 in - SSW 16.1 mph - N/A   Clear
9:00 AM 51.8 °F - 44.6 °F 76% 29.50 in - SSW 15.0 mph - N/A   Clear
9:30 AM 53.6 °F - 44.6 °F 72% 29.50 in - SSW 11.5 mph - N/A   Clear
10:00 AM 51 °F - 45 °F 72% 29.51 in 6 mi SSE 15.7 mph - -   Mostly Cloudy
10:00 AM 51.8 °F - 44.6 °F 76% 29.50 in - South 10.4 mph - N/A   Clear
10:30 AM 60.8 °F - 44.6 °F 55% 29.50 in - SSE 8.1 mph - N/A   Clear
11:00 AM 50.0 °F - 41.0 °F 71% 29.53 in 6.2 mi NW 19.6 mph - N/A   Scattered Clouds
11:30 AM 42.8 °F 33.3 °F 41.0 °F 93% 29.59 in 4.3 mi NW 24.2 mph - N/A   Mostly Cloudy
12:00 PM 44.6 °F 36.4 °F 41.0 °F 87% 29.62 in 5.0 mi NW 20.7 mph - N/A   Overcast
12:30 PM 44.6 °F 36.4 °F 41.0 °F 87% 29.65 in 6.2 mi NW 20.7 mph - N/A   Overcast
1:00 PM 45 °F - 41 °F 82% 29.65 in 6 mi West 26.8 mph - -   Overcast
1:00 PM 44.6 °F 35.5 °F 42.8 °F 93% 29.65 in 6.2 mi NW 25.3 mph - N/A   Overcast
1:30 PM 46.4 °F 38.3 °F 42.8 °F 87% 29.68 in 6.2 mi NW 23.0 mph 34.5 mph N/A   Overcast
2:00 PM 48.2 °F - 42.8 °F 82% 29.68 in 6.2 mi NW 23.0 mph 34.5 mph N/A   Overcast
2:30 PM 48.2 °F - 42.8 °F 82% 29.71 in 6.2 mi NW 24.2 mph 35.7 mph N/A   Mostly Cloudy
3:00 PM 50.0 °F - 42.8 °F 76% 29.74 in 6.2 mi NNW 23.0 mph 34.5 mph N/A   Mostly Cloudy
3:30 PM 50.0 °F - 42.8 °F 76% 29.74 in - NW 23.0 mph 34.5 mph N/A   Clear
4:00 PM 50 °F - 40 °F 60% 29.75 in 6 mi WNW 29.1 mph - -   Scattered Clouds
4:00 PM 50.0 °F - 41.0 °F 71% 29.74 in - NNW 32.2 mph 46.0 mph N/A   Clear
4:30 PM 48.2 °F - 41.0 °F 76% 29.77 in 6.2 mi NW 31.1 mph 44.9 mph N/A   Mostly Cloudy
5:00 PM 48.2 °F - 41.0 °F 76% 29.80 in 6.2 mi NNW 31.1 mph 42.6 mph N/A   Mostly Cloudy
5:30 PM 48.2 °F - 41.0 °F 76% 29.80 in 6.2 mi NNW 27.6 mph 39.1 mph N/A   Scattered Clouds
6:00 PM 46.4 °F 38.3 °F 41.0 °F 81% 29.83 in 6.2 mi NNW 23.0 mph 34.5 mph N/A   Scattered Clouds
6:30 PM 46.4 °F 38.3 °F 41.0 °F 81% 29.86 in 6.2 mi NNW 23.0 mph 34.5 mph N/A   Mostly Cloudy
7:00 PM 46 °F - 40 °F 74% 29.87 in 6 mi WNW 22.4 mph - -   Scattered Clouds
7:00 PM 46.4 °F 37.9 °F 41.0 °F 81% 29.86 in 6.2 mi NNW 25.3 mph - N/A   Mostly Cloudy
7:30 PM 44.6 °F 35.3 °F 41.0 °F 87% 29.89 in 6.2 mi NNW 26.5 mph 38.0 mph N/A   Overcast
8:00 PM 44.6 °F 35.7 °F 41.0 °F 87% 29.92 in 6.2 mi NNW 24.2 mph 35.7 mph N/A   Overcast
8:30 PM 42.8 °F 32.9 °F 41.0 °F 93% 29.92 in 6.2 mi NNW 26.5 mph 38.0 mph N/A   Overcast
9:00 PM 42.8 °F 33.3 °F 39.2 °F 87% 29.95 in 6.2 mi NNW 24.2 mph 35.7 mph N/A   Overcast
9:30 PM 42.8 °F 33.5 °F 39.2 °F 87% 29.95 in 6.2 mi NNW 23.0 mph - N/A   Overcast
10:00 PM 42 °F - 38 °F 79% 29.96 in 6 mi NW 17.9 mph - -   Overcast
10:00 PM 42.8 °F 33.5 °F 39.2 °F 87% 29.95 in 6.2 mi NNW 23.0 mph - N/A   Overcast
10:30 PM 41.0 °F 31.6 °F 37.4 °F 87% 29.95 in 6.2 mi NNW 20.7 mph - N/A   Mostly Cloudy
11:00 PM 41.0 °F 31.6 °F 39.2 °F 93% 29.98 in 6.2 mi NNW 20.7 mph - N/A   Mostly Cloudy
11:30 PM 41.0 °F 31.9 °F 37.4 °F 87% 30.01 in 6.2 mi NNW 19.6 mph - N/A   Mostly Cloudy